Weather History for KAXX - January, 2014

Change the Weather History Date:

Monday, January 27, 2014

  Actual Average (KSKX) Record (KSKX)
Temperature  
Mean Temperature 26 °F -  
Max Temperature 39 °F 40 °F 57 °F (2003)
Min Temperature 12 °F 12 °F -4 °F (2004)
Degree Days  
Heating Degree Days 40    
Moisture  
Dew Point 14 °F    
Average Humidity 57    
Maximum Humidity 92    
Minimum Humidity 33    
Precipitation  
Precipitation 0.00 in - - ()
Sea Level Pressure  
Sea Level Pressure 29.95 in    
Wind  
Wind Speed 9 mph (SW)    
Max Wind Speed 23 mph    
Max Gust Speed 37 mph    
Visibility 10 miles    
Events      
Averages and records for this station are not official NWS values.
T = Trace of Precipitation, MM = Missing Value Source: NWS Daily Summary

Daily Weather History Graph

Daily Weather History Graph

Search for Another Location

Airport or City:

Trip Planner

Search our weather history database for the weather conditions in past years. The results will help you decide how hot, cold, wet, or windy it might be!

Date:

Astronomy

Jan. 27, 2014 Rise Set
Actual Time 7:06 AM MST 5:22 PM MST
Civil Twilight 6:38 AM MST 5:49 PM MST
Nautical Twilight 6:07 AM MST 6:20 PM MST
Astronomical Twilight 5:37 AM MST 6:51 PM MST
Moon 3:48 AM MST (1/27) 2:12 PM MST (1/27)
Length of Visible Light 11h 10m
Length of Day
10h 15m
Waning Crescent, 14% of the Moon is Illuminated
Jan 27
Waning Crescent
Jan 30
New
Feb 6
First Quarter
Feb 14
Full
Feb 22
Last Quarter

Hourly Weather History & Observations

Time (MST) Temp. Windchill Dew Point Humidity Pressure Visibility Wind Dir Wind Speed Gust Speed Precip Events Conditions
12:15 AM 17.1 °F 10.0 °F 11.8 °F 80% 30.03 in 10.0 mi SE 4.6 mph - N/A   Clear
12:35 AM 15.3 °F - 9.7 °F 79% 30.03 in 10.0 mi Calm Calm - N/A   Clear
12:55 AM 15.6 °F - 11.1 °F 82% 30.03 in 10.0 mi Calm Calm - N/A   Clear
1:15 AM 12.2 °F - 8.4 °F 85% 30.02 in 10.0 mi Calm Calm - N/A   Clear
1:35 AM 13.8 °F - 10.0 °F 85% 30.02 in 10.0 mi Calm Calm - N/A   Clear
1:55 AM 16.9 °F - 10.8 °F 77% 30.02 in 10.0 mi Calm Calm - N/A   Clear
2:15 AM 24.1 °F 13.7 °F 16.2 °F 72% 30.02 in 10.0 mi South 10.4 mph - N/A   Clear
2:35 AM 24.6 °F 12.7 °F 16.2 °F 70% 30.02 in 10.0 mi South 13.8 mph - N/A   Clear
2:55 AM 24.8 °F 12.4 °F 17.4 °F 74% 30.02 in 10.0 mi South 15.0 mph - N/A   Clear
3:15 AM 24.6 °F 12.2 °F 18.1 °F 76% 30.02 in 10.0 mi South 15.0 mph - N/A   Clear
3:35 AM 23.7 °F 12.6 °F 18.1 °F 79% 30.03 in 10.0 mi SSW 11.5 mph - N/A   Clear
3:55 AM 22.8 °F 13.6 °F 17.6 °F 80% 30.03 in 10.0 mi SSE 8.1 mph - N/A   Clear
4:15 AM 21.2 °F 11.7 °F 16.9 °F 83% 30.02 in 10.0 mi SSE 8.1 mph - N/A   Clear
4:35 AM 19.4 °F 9.5 °F 15.4 °F 85% 30.01 in 10.0 mi SSE 8.1 mph - N/A   Clear
4:55 AM 19.8 °F 13.2 °F 16.0 °F 85% 30.01 in 10.0 mi SSE 4.6 mph - N/A   Clear
5:15 AM 18.9 °F 12.1 °F 14.7 °F 84% 30.01 in 10.0 mi SSE 4.6 mph - N/A   Clear
5:35 AM 21.7 °F 10.2 °F 18.0 °F 85% 30.01 in 10.0 mi SSE 11.5 mph - N/A   Clear
5:55 AM 19.9 °F 7.9 °F 17.1 °F 89% 30.01 in 10.0 mi SSE 11.5 mph - N/A   Clear
6:15 AM 19.6 °F 7.4 °F 17.1 °F 90% 30.01 in 10.0 mi SSE 11.5 mph - N/A   Clear
6:35 AM 18.7 °F 7.8 °F 16.5 °F 91% 30.01 in 10.0 mi SE 9.2 mph - N/A   Clear
6:55 AM 18.0 °F 6.1 °F 15.6 °F 91% 30.01 in 10.0 mi SE 10.4 mph - N/A   Clear
7:15 AM 18.1 °F 7.1 °F 16.2 °F 92% 30.00 in 10.0 mi SE 9.2 mph - N/A   Clear
7:35 AM 18.3 °F 7.3 °F 15.8 °F 90% 30.00 in 10.0 mi SSE 9.2 mph - N/A   Clear
7:55 AM 20.1 °F 10.3 °F 16.9 °F 87% 30.01 in 10.0 mi South 8.1 mph - N/A   Clear
8:15 AM 22.5 °F 9.9 °F 18.5 °F 85% 30.01 in 10.0 mi SSE 13.8 mph 18.4 mph N/A   Clear
8:35 AM 24.8 °F 16.1 °F 18.5 °F 77% 30.01 in 10.0 mi SE 8.1 mph - N/A   Clear
8:55 AM 28.6 °F 20.7 °F 18.1 °F 65% 30.01 in 10.0 mi SE 8.1 mph - N/A   Clear
9:15 AM 31.3 °F 25.6 °F 16.7 °F 55% 30.02 in 10.0 mi West 5.8 mph - N/A   Clear
9:35 AM 32.0 °F 20.8 °F 16.7 °F 53% 30.02 in 10.0 mi West 17.3 mph 29.9 mph N/A   Clear
9:55 AM 32.5 °F 20.8 °F 16.5 °F 52% 30.01 in 10.0 mi West 19.6 mph 25.3 mph N/A   Clear
10:15 AM 33.8 °F 26.4 °F 15.1 °F 46% 30.01 in 10.0 mi WSW 9.2 mph 23.0 mph N/A   Clear
10:35 AM 34.7 °F 25.9 °F 14.4 °F 43% 30.00 in 10.0 mi West 12.7 mph 21.9 mph N/A   Clear
10:55 AM 34.9 °F 24.9 °F 15.6 °F 45% 30.00 in 10.0 mi West 16.1 mph 24.2 mph N/A   Clear
11:15 AM 34.2 °F 24.4 °F 16.2 °F 48% 29.99 in 10.0 mi West 15.0 mph 32.2 mph N/A   Clear
11:35 AM 35.6 °F 25.2 °F 15.3 °F 43% 29.99 in 10.0 mi West 18.4 mph 26.5 mph N/A   Clear
11:55 AM 35.2 °F 24.7 °F 16.2 °F 46% 29.98 in 10.0 mi West 18.4 mph 24.2 mph N/A   Clear
12:15 PM 35.2 °F 25.8 °F 17.2 °F 48% 29.97 in 10.0 mi West 15.0 mph 25.3 mph N/A   Clear
12:35 PM 35.8 °F 26.9 °F 16.5 °F 46% 29.95 in 10.0 mi West 13.8 mph 26.5 mph N/A   Clear
12:55 PM 36.5 °F 26.0 °F 16.0 °F 43% 29.93 in 10.0 mi West 19.6 mph 28.8 mph N/A   Clear
1:15 PM 37.4 °F 26.6 °F 15.4 °F 41% 29.91 in 10.0 mi West 21.9 mph 27.6 mph N/A   Clear
1:35 PM 38.7 °F 29.1 °F 14.2 °F 37% 29.90 in 10.0 mi West 18.4 mph 27.6 mph N/A   Clear
1:55 PM 39.2 °F 29.0 °F 13.1 °F 34% 29.89 in 10.0 mi West 21.9 mph 28.8 mph N/A   Clear
2:15 PM 39.6 °F 32.1 °F 12.4 °F 33% 29.89 in 10.0 mi West 12.7 mph 25.3 mph N/A   Clear
2:35 PM 39.2 °F 31.6 °F 12.4 °F 33% 29.89 in 10.0 mi West 12.7 mph 26.5 mph N/A   Clear
2:55 PM 39.9 °F 30.8 °F 12.6 °F 33% 29.89 in 10.0 mi West 18.4 mph 27.6 mph N/A   Clear
3:15 PM 39.6 °F 31.3 °F 12.9 °F 34% 29.88 in 10.0 mi West 15.0 mph 27.6 mph N/A   Clear
3:35 PM 39.6 °F 29.5 °F 13.1 °F 34% 29.88 in 10.0 mi SW 21.9 mph 25.3 mph N/A   Clear
3:55 PM 39.4 °F 32.3 °F 12.7 °F 34% 29.88 in 10.0 mi WSW 11.5 mph 23.0 mph N/A   Clear
4:15 PM 38.3 °F 32.5 °F 12.4 °F 35% 29.87 in 10.0 mi WNW 8.1 mph - N/A   Clear
4:35 PM 37.6 °F 31.0 °F 12.4 °F 36% 29.87 in 10.0 mi WNW 9.2 mph 17.3 mph N/A   Clear
4:55 PM 36.7 °F 32.0 °F 12.7 °F 37% 29.88 in 10.0 mi WSW 5.8 mph - N/A   Clear
5:15 PM 34.9 °F 32.0 °F 12.0 °F 39% 29.87 in 10.0 mi WSW 3.5 mph - N/A   Clear
5:35 PM 35.2 °F 31.2 °F 11.5 °F 37% 29.87 in 10.0 mi East 4.6 mph - N/A   Clear
5:55 PM 33.3 °F 27.9 °F 12.2 °F 42% 29.87 in 10.0 mi East 5.8 mph - N/A   Clear
6:15 PM 32.9 °F 28.5 °F 11.8 °F 42% 29.88 in 10.0 mi ESE 4.6 mph - N/A   Clear
6:35 PM 34.5 °F 28.6 °F 11.5 °F 39% 29.87 in 10.0 mi ENE 6.9 mph - N/A   Clear
6:55 PM 33.3 °F - 11.8 °F 41% 29.88 in 10.0 mi Calm Calm - N/A   Clear
7:15 PM 32.0 °F 28.7 °F 12.0 °F 44% 29.88 in 10.0 mi East 3.5 mph - N/A   Clear
7:35 PM 31.1 °F - 12.2 °F 46% 29.88 in 10.0 mi Calm Calm - N/A   Clear
7:55 PM 31.8 °F - 11.8 °F 44% 29.89 in 10.0 mi Calm Calm - N/A   Clear
8:15 PM 31.6 °F 23.7 °F 12.0 °F 44% 29.88 in 10.0 mi SSW 9.2 mph - N/A   Clear
8:35 PM 32.7 °F 21.8 °F 11.8 °F 42% 29.88 in 10.0 mi West 17.3 mph 23.0 mph N/A   Clear
8:55 PM 32.4 °F 20.0 °F 12.4 °F 44% 29.88 in 10.0 mi WSW 21.9 mph 34.5 mph N/A   Clear
9:15 PM 32.5 °F 22.3 °F 12.7 °F 44% 29.89 in 10.0 mi WSW 15.0 mph 36.8 mph N/A   Clear
9:35 PM 32.0 °F 20.8 °F 13.1 °F 46% 29.89 in 10.0 mi WSW 17.3 mph 31.1 mph N/A   Clear
9:55 PM 32.0 °F 19.2 °F 12.9 °F 45% 29.88 in 10.0 mi WSW 23.0 mph 32.2 mph N/A   Clear
10:15 PM 32.0 °F 20.8 °F 12.7 °F 45% 29.89 in 10.0 mi WSW 17.3 mph 28.8 mph N/A   Clear
10:35 PM 32.0 °F 22.5 °F 12.9 °F 45% 29.89 in 10.0 mi WSW 12.7 mph 24.2 mph N/A   Clear
10:55 PM 32.0 °F 21.6 °F 12.7 °F 45% 29.90 in 10.0 mi WSW 15.0 mph 24.2 mph N/A   Clear
11:15 PM 31.6 °F 21.6 °F 13.1 °F 46% 29.90 in 10.0 mi SW 13.8 mph 21.9 mph N/A   Clear
11:35 PM 30.7 °F 20.9 °F 13.1 °F 48% 29.90 in 10.0 mi WSW 12.7 mph 18.4 mph N/A   Clear
11:55 PM 30.7 °F 21.4 °F 12.9 °F 48% 29.90 in 10.0 mi WSW 11.5 mph - N/A   Clear